[[{"header":{"parameterUnit":"m.s-1","parameterCategory":1,"la1":30.2991,"la2":30.254,"lo1":-89.0895,"lo2":-89.0444,"dy":0.0017,"dx":0.0017,"nx":28,"ny":28,"refTime":"2024-04-11T21:00:00:Z","depth":0,"parameterNumber":2,"parameterNumberName":"U-component_of_WINDS"},"data":[0,0,0,0,0,0,0,0,0,0,0,0,0,0,0,0,0,0,0,0,0,0,0,0,0,0,0,0,0,0,0,0,0,0,0,0,0,0,0,0,0,0,0,0,0,0,0,0,0,0,0,0,0,0,0,0,0,0,1.6594,1.6594,0,1.6584,1.6584,1.6584,1.6543,1.6542,1.6541,1.6541,1.6532,1.6532,1.6533,0,0,0,0,0,0,0,0,0,0,0,0,0,1.6577,1.6578,1.6594,1.6594,1.6593,1.6584,1.6584,1.6584,1.6544,1.6542,1.6541,1.654,1.6532,1.6532,1.6533,0,0,0,0,0,0,0,0,0,0,0,0,0,1.6578,1.6578,1.6594,1.6572,1.657,1.6584,1.6584,1.6584,1.6544,1.6542,1.6541,1.654,1.6531,1.6532,1.6533,1.6568,0,0,1.6536,1.6537,0,0,0,0,0,0,0,0,1.6578,1.6579,1.6575,1.6574,1.6571,1.6564,1.6575,1.6579,1.6544,1.6554,1.6541,1.6539,1.6544,1.6543,1.6545,1.6567,1.6567,1.6536,1.6537,1.6537,1.6538,0,0,0,0,0,0,0,1.6578,1.6579,1.659,1.6575,1.6573,1.6563,1.6562,1.6576,1.6557,1.6553,1.655,1.6549,1.6542,1.6544,1.6544,1.6567,1.6536,1.6537,1.6538,1.6538,1.6618,1.662,0,0,0,0,0,0,1.6581,1.6579,1.659,1.659,1.6571,1.6565,1.6563,1.6568,1.6557,1.6553,1.6551,1.6547,1.6543,1.6543,1.6544,1.6584,1.6537,1.6538,1.6539,1.6617,1.6619,1.662,0,0,0,0,0,0,1.6581,1.6582,1.6591,1.6584,1.6584,1.6566,1.6572,1.6568,1.657,1.6555,1.6551,1.6556,1.6542,1.6543,1.6562,1.6583,1.6539,1.654,1.6615,1.6617,1.6619,1.6665,0,0,0,0,0,0,1.658,1.6582,1.6595,1.6584,1.6584,1.6609,1.6573,1.6569,1.6572,1.6567,1.6559,1.6556,1.6541,1.6561,1.6563,1.6584,1.654,1.6613,1.6616,1.6619,1.6661,1.6668,1.6674,0,0,0,0,0,1.658,1.6608,1.6596,1.6598,1.66,1.661,1.661,1.6592,1.6573,1.6586,1.6577,1.6556,1.6581,1.6563,1.6566,1.6587,1.6611,1.6615,1.6618,1.6658,1.6667,1.6674,0,0,0,0,0,0,1.6622,1.6606,1.6593,1.6618,1.6616,1.6603,1.6619,1.6602,1.6605,1.6601,1.6578,1.6577,1.66,1.6595,1.6576,1.662,1.6593,1.6597,1.6622,1.663,1.6637,1.6637,1.6541,0,0,0,0,0,1.6634,1.6644,1.663,1.6654,1.6653,1.6636,1.664,1.6626,1.6623,1.6622,1.6614,1.6612,1.6619,1.6624,1.663,1.666,1.6658,1.6676,1.6682,1.6688,1.6692,1.6708,1.6716,1.6632,1.6632,1.6631,0,0,1.666,1.6652,1.666,1.6662,1.6658,1.6669,1.6636,1.6648,1.6656,1.6624,1.6642,1.6637,1.6633,1.6658,1.6669,1.6655,1.6714,1.6692,1.6697,1.6697,1.6712,1.672,1.6727,1.6634,1.6633,1.6633,0,0,1.6712,1.6707,1.6726,1.6724,1.6719,1.6708,1.6713,1.6703,1.6698,1.6716,1.6692,1.6701,1.6714,1.6713,1.6714,1.6766,1.6747,1.6768,1.6802,1.6818,1.6825,1.6831,1.685,1.6857,1.6772,1.6772,1.6772,0,1.6744,1.6759,1.6739,1.6753,1.6755,1.6726,1.6746,1.6745,1.6743,1.6745,1.6729,1.6745,1.674,1.6765,1.6778,1.678,1.6785,1.6769,1.6825,1.6831,1.6836,1.6854,1.6861,1.6775,1.6775,1.6774,1.6774,0,1.6799,1.681,1.6826,1.6825,1.6828,1.6845,1.6828,1.6835,1.6821,1.6812,1.6831,1.6824,1.6829,1.6833,1.682,1.6857,1.6848,1.6829,1.6801,1.6847,1.6864,1.687,1.6779,1.6778,1.6777,1.6776,0,0,1.6876,1.6864,1.687,1.687,1.6863,1.6871,1.6887,1.6891,1.6897,1.6897,1.691,1.6922,1.6905,1.6906,1.6892,1.6906,1.6949,1.6886,1.6885,1.6898,1.6989,1.7003,1.7011,1.6936,1.6938,1.6939,1.6989,0,1.6926,1.6953,1.6935,1.6965,1.6975,1.6949,1.6963,1.696,1.6952,1.696,1.6951,1.696,1.6936,1.6937,1.695,1.6941,1.6967,1.6937,1.6949,1.6949,1.6951,1.702,1.7035,1.7083,1.6996,1.6997,1.6997,0,1.6987,1.699,1.702,1.7012,1.7016,1.7029,1.7031,1.7039,1.7036,1.7029,1.7031,1.7014,1.7029,1.7002,1.7024,1.7004,1.7008,1.7005,1.7006,1.7006,1.6976,1.7022,1.7098,1.7106,1.7007,1.7007,1.7006,0,1.7042,1.7052,1.7072,1.7072,1.7063,1.7073,1.707,1.7065,1.7069,1.7071,1.7074,1.7078,1.7081,1.7085,1.7069,1.7051,1.7093,1.7065,1.7088,1.7089,1.7098,1.7098,1.7176,1.7101,1.7101,1.7101,1.7101,0,1.7099,1.7119,1.7096,1.7109,1.713,1.7111,1.7133,1.7127,1.7123,1.7134,1.7111,1.7122,1.7101,1.711,1.7098,1.7118,1.7119,1.7115,1.7111,1.7117,1.7117,1.7119,1.7115,1.7103,1.7102,1.7102,1.7102,0,1.7163,1.7149,1.7168,1.7158,1.7156,1.7173,1.7164,1.7175,1.7166,1.718,1.7182,1.7167,1.7177,1.7162,1.7169,1.7161,1.7189,1.7181,1.719,1.7188,1.7213,1.7211,1.7294,1.7304,1.7223,1.7224,1.7224,0,1.72,1.7215,1.7207,1.7212,1.721,1.7219,1.7223,1.7205,1.721,1.7208,1.7219,1.7227,1.7231,1.7248,1.7238,1.7244,1.7235,1.7264,1.7236,1.7241,1.7236,1.7235,1.7237,1.727,1.7271,1.7272,1.7272,0,1.7269,1.7261,1.7267,1.7271,1.7277,1.7279,1.728,1.7286,1.7266,1.7273,1.7282,1.7286,1.7294,1.7301,1.7305,1.7302,1.7284,1.7281,1.7287,1.7293,1.7298,1.7296,1.7206,1.7279,1.7279,1.7278,1.7278,1.7278,1.7321,1.7333,1.7329,1.7337,1.7335,1.7337,1.7347,1.7339,1.7346,1.7351,1.7339,1.7351,1.7349,1.7351,1.735,1.736,1.7347,1.7355,1.7358,1.736,1.7364,1.7297,1.736,1.736,1.736,1.736,1.7359,0,1.7388,1.7384,1.7392,1.7394,1.74,1.7383,1.7383,1.7389,1.74,1.7399,1.7404,1.7415,1.7423,1.7414,1.742,1.7429,1.7421,1.7431,1.743,1.743,1.7375,1.7369,1.7438,1.7438,1.7438,1.7438,1.7438,1.7438,1.7424,1.7444,1.7436,1.7455,1.7451,1.7462,1.7464,1.7465,1.7464,1.7477,1.7483,1.7477,1.7473,1.7479,1.7485,1.7482,1.7486,1.7499,1.7493,1.7442,1.7434,1.7427,1.7421,1.7499,1.75,1.7547,1.7548,1.7548]},{"header":{"parameterUnit":"m.s-1","parameterCategory":1,"la1":30.2991,"la2":30.254,"lo1":-89.0895,"lo2":-89.0444,"dy":0.0017,"dx":0.0017,"nx":28,"ny":28,"refTime":"2024-04-11T21:00:00:Z","depth":0,"parameterNumber":3,"parameterNumberName":"V-component_of_WINDS"},"data":[0,0,0,0,0,0,0,0,0,0,0,0,0,0,0,0,0,0,0,0,0,0,0,0,0,0,0,0,0,0,0,0,0,0,0,0,0,0,0,0,0,0,0,0,0,0,0,0,0,0,0,0,0,0,0,0,0,0,-2.1341,-2.1342,0,-2.1436,-2.1437,-2.1438,-2.1434,-2.1433,-2.1432,-2.143,-2.1528,-2.1531,-2.1535,0,0,0,0,0,0,0,0,0,0,0,0,0,-2.1155,-2.1159,-2.134,-2.1342,-2.1343,-2.1436,-2.1437,-2.1438,-2.1434,-2.1433,-2.1431,-2.143,-2.1526,-2.1531,-2.1535,0,0,0,0,0,0,0,0,0,0,0,0,0,-2.1242,-2.116,-2.134,-2.1352,-2.1354,-2.1436,-2.1437,-2.1439,-2.1435,-2.1433,-2.1431,-2.1429,-2.1525,-2.153,-2.1536,-2.1612,0,0,-2.1554,-2.1556,0,0,0,0,0,0,0,0,-2.1237,-2.1248,-2.1349,-2.1351,-2.1354,-2.1421,-2.1407,-2.1497,-2.1435,-2.1404,-2.143,-2.1428,-2.1494,-2.1502,-2.1524,-2.1616,-2.1621,-2.1554,-2.1558,-2.156,-2.1562,0,0,0,0,0,0,0,-2.1231,-2.1244,-2.1378,-2.1351,-2.1353,-2.1353,-2.1363,-2.1424,-2.1459,-2.1407,-2.1407,-2.1418,-2.1495,-2.1519,-2.1526,-2.1622,-2.1554,-2.1559,-2.1563,-2.1565,-2.1782,-2.1785,0,0,0,0,0,0,-2.1222,-2.1239,-2.1375,-2.1381,-2.1289,-2.1358,-2.1369,-2.1402,-2.1458,-2.1465,-2.142,-2.1417,-2.151,-2.152,-2.153,-2.1623,-2.156,-2.1565,-2.1569,-2.178,-2.1783,-2.1785,0,0,0,0,0,0,-2.1218,-2.1234,-2.1371,-2.131,-2.1328,-2.1363,-2.14,-2.1404,-2.1428,-2.1468,-2.1474,-2.1438,-2.1509,-2.1522,-2.1592,-2.1626,-2.1568,-2.1573,-2.1777,-2.1781,-2.1784,-2.1809,0,0,0,0,0,0,-2.1213,-2.1233,-2.1262,-2.1311,-2.1331,-2.1432,-2.1402,-2.1408,-2.1439,-2.1437,-2.1487,-2.1493,-2.1508,-2.1583,-2.1598,-2.1633,-2.1578,-2.1774,-2.1779,-2.1783,-2.1806,-2.1813,-2.182,0,0,0,0,0,-2.1206,-2.1265,-2.1263,-2.128,-2.1368,-2.1433,-2.1445,-2.1461,-2.1441,-2.1471,-2.1497,-2.1492,-2.162,-2.159,-2.1606,-2.1644,-2.1772,-2.1778,-2.1783,-2.1802,-2.1812,-2.182,0,0,0,0,0,0,-2.1218,-2.1271,-2.127,-2.1346,-2.1386,-2.1433,-2.147,-2.147,-2.1515,-2.1512,-2.153,-2.1541,-2.1611,-2.1635,-2.1601,-2.1721,-2.1694,-2.1702,-2.1703,-2.1713,-2.172,-2.1712,-2.1583,0,0,0,0,0,-2.123,-2.1279,-2.1323,-2.1386,-2.1405,-2.1435,-2.1464,-2.1473,-2.1514,-2.153,-2.1561,-2.1601,-2.1651,-2.1683,-2.1731,-2.1809,-2.182,-2.1843,-2.185,-2.1856,-2.1863,-2.1908,-2.1918,-2.1803,-2.1802,-2.1802,0,0,-2.1254,-2.1289,-2.1319,-2.1389,-2.142,-2.1471,-2.1448,-2.1502,-2.154,-2.1539,-2.1607,-2.1631,-2.1677,-2.1752,-2.1786,-2.1773,-2.1898,-2.1863,-2.1867,-2.1871,-2.1914,-2.1925,-2.1935,-2.1806,-2.1805,-2.1805,0,0,-2.1324,-2.1356,-2.1412,-2.1444,-2.1492,-2.1511,-2.1525,-2.1573,-2.1589,-2.1658,-2.1658,-2.1703,-2.1788,-2.1821,-2.1849,-2.1933,-2.193,-2.1948,-2.1985,-2.2028,-2.2037,-2.2045,-2.2076,-2.2087,-2.1955,-2.1955,-2.1955,0,-2.1348,-2.1424,-2.1441,-2.1496,-2.1527,-2.1528,-2.1586,-2.1616,-2.1677,-2.1699,-2.1684,-2.1791,-2.1822,-2.1905,-2.1926,-2.1948,-2.1965,-2.1942,-2.2035,-2.2043,-2.2051,-2.208,-2.2092,-2.1957,-2.1957,-2.1957,-2.1957,0,-2.1452,-2.1505,-2.1545,-2.1604,-2.164,-2.1696,-2.1721,-2.1755,-2.1761,-2.1782,-2.1853,-2.1891,-2.1946,-2.1967,-2.1973,-2.2051,-2.2042,-2.2031,-2.2003,-2.2064,-2.2092,-2.2103,-2.196,-2.1959,-2.1959,-2.1958,0,0,-2.1531,-2.16,-2.1615,-2.1642,-2.1696,-2.1737,-2.1794,-2.1849,-2.1878,-2.192,-2.1968,-2.2041,-2.2031,-2.2063,-2.2073,-2.2111,-2.2176,-2.2095,-2.2096,-2.2109,-2.2265,-2.2273,-2.2286,-2.2175,-2.2177,-2.2179,-2.2261,0,-2.1607,-2.1707,-2.1724,-2.1812,-2.1862,-2.1864,-2.1914,-2.1952,-2.1974,-2.2019,-2.2042,-2.2094,-2.2077,-2.2096,-2.2134,-2.216,-2.2207,-2.2154,-2.222,-2.2222,-2.2208,-2.2301,-2.2309,-2.2385,-2.2272,-2.2274,-2.2276,0,-2.1709,-2.1755,-2.1847,-2.1896,-2.1917,-2.1961,-2.2013,-2.2056,-2.2101,-2.2114,-2.215,-2.2156,-2.2215,-2.2186,-2.2268,-2.2231,-2.2259,-2.2276,-2.228,-2.2286,-2.2252,-2.231,-2.241,-2.2422,-2.2293,-2.2291,-2.229,0,-2.1758,-2.1843,-2.191,-2.1933,-2.1991,-2.2022,-2.2047,-2.2089,-2.2122,-2.2168,-2.2189,-2.2241,-2.227,-2.231,-2.233,-2.2307,-2.2411,-2.2383,-2.2424,-2.2424,-2.2446,-2.2444,-2.2552,-2.2464,-2.2463,-2.2463,-2.2463,0,-2.1841,-2.1898,-2.1933,-2.1974,-2.2038,-2.2057,-2.212,-2.2145,-2.2183,-2.2229,-2.2234,-2.2278,-2.2302,-2.2349,-2.2365,-2.2431,-2.2444,-2.2456,-2.246,-2.2456,-2.2455,-2.2475,-2.247,-2.2466,-2.2466,-2.2465,-2.2464,0,-2.1907,-2.1932,-2.2005,-2.2054,-2.2068,-2.2113,-2.2155,-2.2196,-2.2217,-2.2276,-2.2291,-2.2325,-2.2381,-2.2405,-2.2474,-2.2485,-2.256,-2.256,-2.2545,-2.2547,-2.2587,-2.2583,-2.2711,-2.2729,-2.2629,-2.263,-2.263,0,-2.1958,-2.2002,-2.2056,-2.2088,-2.2114,-2.2165,-2.2198,-2.2219,-2.2254,-2.2308,-2.2342,-2.2398,-2.2444,-2.2533,-2.2564,-2.2617,-2.2618,-2.266,-2.2626,-2.2621,-2.2619,-2.2617,-2.2621,-2.2666,-2.2667,-2.2667,-2.2668,0,-2.2047,-2.2057,-2.2105,-2.2158,-2.2198,-2.2241,-2.2282,-2.2308,-2.2336,-2.2374,-2.2432,-2.2467,-2.2538,-2.2594,-2.2649,-2.2675,-2.2677,-2.2678,-2.2691,-2.2687,-2.2677,-2.2684,-2.2562,-2.2675,-2.2675,-2.2674,-2.2674,-2.2673,-2.2107,-2.2146,-2.2191,-2.2245,-2.2278,-2.2317,-2.2358,-2.2385,-2.2434,-2.2493,-2.2503,-2.2564,-2.2608,-2.2682,-2.2711,-2.2759,-2.2749,-2.2767,-2.2771,-2.2776,-2.2778,-2.2669,-2.2769,-2.2769,-2.2769,-2.2769,-2.2769,0,-2.2196,-2.2225,-2.2274,-2.2333,-2.2375,-2.2373,-2.242,-2.2455,-2.2509,-2.255,-2.2596,-2.2662,-2.2717,-2.2753,-2.2808,-2.284,-2.2842,-2.2854,-2.2852,-2.2858,-2.2784,-2.2768,-2.2851,-2.2851,-2.2851,-2.2851,-2.2851,-2.2851,-2.2248,-2.2315,-2.2331,-2.2415,-2.2444,-2.2504,-2.2531,-2.2568,-2.2601,-2.2675,-2.272,-2.2743,-2.2783,-2.2841,-2.2891,-2.29,-2.2921,-2.2933,-2.2942,-2.2872,-2.2863,-2.2855,-2.284,-2.2937,-2.2937,-2.3012,-2.3012,-2.3013]}]]